User: anonymous   Login
Location: Ostrava
(49.8330°N, 18.2830°E)
Time: 21:27:57
(UTC+01:00)
Language:

NOAA 19 - Orbit

View from above orbital plane
View from above orbital plane
View from above satellite
View from above satellite

Ground track
Ground track

The orbit data is extracted from the following two-line orbital elements,

1 33591U 09005A   16043.52775210  .00000185  00000-0  12547-3 0  9994
2 33591  99.0242 359.3817 0013377 209.6547 150.3866 14.12038750361403
Epoch (UTC): 12 February 2016 12:39:57
Eccentricity: 0.0013377
inclination: 99.0242°
perigee height: 843 km
apogee height: 862 km
right ascension of ascending node: 359.3817°
argument of perigee: 209.6547°
revolutions per day: 14.12038750
mean anomaly at epoch: 150.3866°
orbit number at epoch: 36140

The dashed part of the orbit path shows where the satellite is in the earth's shadow,  

DLR